Location: �bnet
(46.9957°N, 8.4908°E)
Time: 04:22:56
(UTC+00:00)

Cosmos 1943 Rocket - Pass Details

Date: 11 May 2021
Orbit: 814 x 842 km, 71.0° (Epoch: 23 June)

Event Time Altitude Azimuth Distance (km) Brightness Sun altitude
Exits shadow 22:13:50 55° 173° (S) 1,003 2.2 -23.1°
Maximum altitude 22:15:00 71° 113° (ESE) 884 2.1 -23.1°
Drops below altitude 10° 22:20:34 10° 31° (NNE) 2,444 5.1 -23.4°
Sets 22:23:01 0° 29° (NNE) 3,377 6.0 -23.5°
